Find Starlink 32941

NORAD ID: 63119 Int'l Des: 2025-039 Owner: SPXS Country: US Constellation: starlink operational
LEOCIRCULAR

当前视图

正在加载3D地球...

About Starlink 32941

Starlink 32941 (NORAD 63119) is a starlink constellation satellite (v2 mini) launched Feb 27, 2025 by SPXS of US. It operates in LEO, CIRCULAR orbit with a mass of 730.00 kg.

即将过境

Passes for default location (London). Set your location on the main map for personalized predictions.

高度历史

Loading altitude history...

两行轨道根数

1 63119U 25039R 26263.90454196 .00014153 00000-0 52254-3 0 9991
2 63119 43.0008 338.9390 0002362 280.9220 79.1366 15.27598004 88052
Epoch: Sep 20, 2026 • Age: 12 hours

当前状态

高度 484.3 km
远地点 / 近地点 N/A
速度 7.62 km/s
星下点 -12.32°S, 169.47°E
发射日期 Feb 27, 2025
运行时间 1.5 years
类型 internet

技术详情

分类 Payload
质量 730.00 kg
干质量 700.00 kg
长度 0.30 m
跨度 29.00 m
形状 ? Box + pan
制造商 SPXS
平台类型 Starlink V2M
阶段状态 In Orbit
所有者/国家 SPXS/US

Most Searched